Year,Month,Day,Hour,Minute,Value (Times are PST for insolation in W/m^2)
2017,05,31,00,00,0.00
2017,05,31,00,01,0.00
2017,05,31,00,02,0.00
2017,05,31,00,03,0.00
2017,05,31,00,04,0.00
2017,05,31,00,05,0.00
2017,05,31,00,06,0.00
2017,05,31,00,07,0.00
2017,05,31,00,08,0.00
2017,05,31,00,09,0.00
2017,05,31,00,10,0.00
2017,05,31,00,11,0.00
2017,05,31,00,12,0.00
2017,05,31,00,13,0.00
2017,05,31,00,14,0.00
2017,05,31,00,15,0.00
2017,05,31,00,16,0.00
2017,05,31,00,17,0.00
2017,05,31,00,18,0.00
2017,05,31,00,19,0.00
2017,05,31,00,20,0.00
2017,05,31,00,21,0.00
2017,05,31,00,22,0.00
2017,05,31,00,23,0.00
2017,05,31,00,24,0.00
2017,05,31,00,25,0.00
2017,05,31,00,26,0.00
2017,05,31,00,27,0.00
2017,05,31,00,28,0.00
2017,05,31,00,29,0.00
2017,05,31,00,30,0.00
2017,05,31,00,31,0.00
2017,05,31,00,32,0.00
2017,05,31,00,33,0.00
2017,05,31,00,34,0.00
2017,05,31,00,35,0.00
2017,05,31,00,36,0.00
2017,05,31,00,37,0.00
2017,05,31,00,38,0.00
2017,05,31,00,39,0.00
2017,05,31,00,40,0.00
2017,05,31,00,41,0.00
2017,05,31,00,42,0.00
2017,05,31,00,43,0.00
2017,05,31,00,44,0.00
2017,05,31,00,45,0.00
2017,05,31,00,46,0.00
2017,05,31,00,47,0.00
2017,05,31,00,48,0.00
2017,05,31,00,49,0.00
2017,05,31,00,50,0.00
2017,05,31,00,51,0.00
2017,05,31,00,52,0.00
2017,05,31,00,53,0.00
2017,05,31,00,54,0.00
2017,05,31,00,55,0.00
2017,05,31,00,56,0.00
2017,05,31,00,57,0.00
2017,05,31,00,58,0.00
2017,05,31,00,59,0.00
2017,05,31,01,00,0.00
2017,05,31,01,01,0.00
2017,05,31,01,02,0.00
2017,05,31,01,03,0.00
2017,05,31,01,04,0.00
2017,05,31,01,05,0.00
2017,05,31,01,06,0.00
2017,05,31,01,07,0.00
2017,05,31,01,08,0.00
2017,05,31,01,09,0.00
2017,05,31,01,10,0.00
2017,05,31,01,11,0.00
2017,05,31,01,12,0.00
2017,05,31,01,13,0.00
2017,05,31,01,14,0.00
2017,05,31,01,15,0.00
2017,05,31,01,16,0.00
2017,05,31,01,17,0.00
2017,05,31,01,18,0.00
2017,05,31,01,19,0.00
2017,05,31,01,20,0.00
2017,05,31,01,21,0.00
2017,05,31,01,22,0.00
2017,05,31,01,23,0.00
2017,05,31,01,24,0.00
2017,05,31,01,25,0.00
2017,05,31,01,26,0.00
2017,05,31,01,27,0.00
2017,05,31,01,28,0.00
2017,05,31,01,29,0.00
2017,05,31,01,30,0.00
2017,05,31,01,31,0.00
2017,05,31,01,32,0.00
2017,05,31,01,33,0.00
2017,05,31,01,34,0.00
2017,05,31,01,35,0.00
2017,05,31,01,36,0.00
2017,05,31,01,37,0.00
2017,05,31,01,38,0.00
2017,05,31,01,39,0.00
2017,05,31,01,40,0.00
2017,05,31,01,41,0.00
2017,05,31,01,42,0.00
2017,05,31,01,43,0.00
2017,05,31,01,44,0.00
2017,05,31,01,45,0.00
2017,05,31,01,46,0.00
2017,05,31,01,47,0.00
2017,05,31,01,48,0.00
2017,05,31,01,49,0.00
2017,05,31,01,50,0.00
2017,05,31,01,51,0.00
2017,05,31,01,52,0.00
2017,05,31,01,53,0.00
2017,05,31,01,54,0.00
2017,05,31,01,55,0.00
2017,05,31,01,56,0.00
2017,05,31,01,57,0.00
2017,05,31,01,58,0.00
2017,05,31,01,59,0.00
2017,05,31,02,00,0.00
2017,05,31,02,01,0.00
2017,05,31,02,02,0.00
2017,05,31,02,03,0.00
2017,05,31,02,04,0.00
2017,05,31,02,05,0.00
2017,05,31,02,06,0.00
2017,05,31,02,07,0.00
2017,05,31,02,08,0.00
2017,05,31,02,09,0.00
2017,05,31,02,10,0.00
2017,05,31,02,11,0.00
2017,05,31,02,12,0.00
2017,05,31,02,13,0.00
2017,05,31,02,14,0.00
2017,05,31,02,15,0.00
2017,05,31,02,16,0.00
2017,05,31,02,17,0.00
2017,05,31,02,18,0.00
2017,05,31,02,19,0.00
2017,05,31,02,20,0.00
2017,05,31,02,21,0.00
2017,05,31,02,22,0.00
2017,05,31,02,23,0.00
2017,05,31,02,24,0.00
2017,05,31,02,25,0.00
2017,05,31,02,26,0.00
2017,05,31,02,27,0.00
2017,05,31,02,28,0.00
2017,05,31,02,29,0.00
2017,05,31,02,30,0.00
2017,05,31,02,31,0.00
2017,05,31,02,32,0.00
2017,05,31,02,33,0.00
2017,05,31,02,34,0.00
2017,05,31,02,35,0.00
2017,05,31,02,36,0.00
2017,05,31,02,37,0.00
2017,05,31,02,38,0.00
2017,05,31,02,39,0.00
2017,05,31,02,40,0.00
2017,05,31,02,41,0.00
2017,05,31,02,42,0.00
2017,05,31,02,43,0.00
2017,05,31,02,44,0.00
2017,05,31,02,45,0.00
2017,05,31,02,46,0.00
2017,05,31,02,47,0.00
2017,05,31,02,48,0.00
2017,05,31,02,49,0.00
2017,05,31,02,50,0.00
2017,05,31,02,51,0.00
2017,05,31,02,52,0.00
2017,05,31,02,53,0.00
2017,05,31,02,54,0.00
2017,05,31,02,55,0.00
2017,05,31,02,56,0.00
2017,05,31,02,57,0.00
2017,05,31,02,58,0.00
2017,05,31,02,59,0.00
2017,05,31,03,00,0.00
2017,05,31,03,01,0.00
2017,05,31,03,02,0.00
2017,05,31,03,03,0.00
2017,05,31,03,04,0.00
2017,05,31,03,05,0.00
2017,05,31,03,06,0.00
2017,05,31,03,07,0.00
2017,05,31,03,08,0.00
2017,05,31,03,09,0.00
2017,05,31,03,10,0.00
2017,05,31,03,11,0.00
2017,05,31,03,12,0.00
2017,05,31,03,13,0.00
2017,05,31,03,14,0.00
2017,05,31,03,15,0.00
2017,05,31,03,16,0.00
2017,05,31,03,17,0.00
2017,05,31,03,18,0.00
2017,05,31,03,19,0.00
2017,05,31,03,20,0.00
2017,05,31,03,21,0.00
2017,05,31,03,22,0.00
2017,05,31,03,23,0.00
2017,05,31,03,24,0.00
2017,05,31,03,25,0.00
2017,05,31,03,26,0.00
2017,05,31,03,27,0.00
2017,05,31,03,28,0.00
2017,05,31,03,29,0.00
2017,05,31,03,30,0.00
2017,05,31,03,31,0.00
2017,05,31,03,32,0.00
2017,05,31,03,33,0.00
2017,05,31,03,34,0.00
2017,05,31,03,35,0.00
2017,05,31,03,36,0.00
2017,05,31,03,37,0.00
2017,05,31,03,38,0.00
2017,05,31,03,39,0.00
2017,05,31,03,40,0.00
2017,05,31,03,41,0.00
2017,05,31,03,42,0.00
2017,05,31,03,43,0.00
2017,05,31,03,44,0.00
2017,05,31,03,45,0.00
2017,05,31,03,46,0.00
2017,05,31,03,47,0.00
2017,05,31,03,48,0.00
2017,05,31,03,49,0.00
2017,05,31,03,50,0.00
2017,05,31,03,51,0.00
2017,05,31,03,52,0.00
2017,05,31,03,53,0.00
2017,05,31,03,54,0.00
2017,05,31,03,55,0.00
2017,05,31,03,56,0.00
2017,05,31,03,57,0.00
2017,05,31,03,58,0.00
2017,05,31,03,59,0.00
2017,05,31,04,00,0.00
2017,05,31,04,01,0.00
2017,05,31,04,02,0.00
2017,05,31,04,03,0.00
2017,05,31,04,04,0.00
2017,05,31,04,05,0.00
2017,05,31,04,06,0.00
2017,05,31,04,07,0.00
2017,05,31,04,08,0.00
2017,05,31,04,09,0.00
2017,05,31,04,10,0.00
2017,05,31,04,11,0.00
2017,05,31,04,12,0.00
2017,05,31,04,13,0.00
2017,05,31,04,14,0.00
2017,05,31,04,15,0.00
2017,05,31,04,16,0.00
2017,05,31,04,17,0.00
2017,05,31,04,18,0.00
2017,05,31,04,19,0.00
2017,05,31,04,20,0.00
2017,05,31,04,21,0.00
2017,05,31,04,22,0.00
2017,05,31,04,23,0.00
2017,05,31,04,24,0.00
2017,05,31,04,25,0.00
2017,05,31,04,26,0.00
2017,05,31,04,27,0.00
2017,05,31,04,28,0.00
2017,05,31,04,29,0.00
2017,05,31,04,30,0.00
2017,05,31,04,31,0.00
2017,05,31,04,32,0.00
2017,05,31,04,33,0.00
2017,05,31,04,34,0.00
2017,05,31,04,35,0.00
2017,05,31,04,36,0.00
2017,05,31,04,37,0.00
2017,05,31,04,38,0.00
2017,05,31,04,39,0.00
2017,05,31,04,40,0.00
2017,05,31,04,41,0.00
2017,05,31,04,42,0.00
2017,05,31,04,43,0.00
2017,05,31,04,44,0.00
2017,05,31,04,45,0.00
2017,05,31,04,46,0.00
2017,05,31,04,47,0.00
2017,05,31,04,48,0.00
2017,05,31,04,49,0.00
2017,05,31,04,50,0.00
2017,05,31,04,51,0.00
2017,05,31,04,52,0.00
2017,05,31,04,53,0.00
2017,05,31,04,54,0.00
2017,05,31,04,55,0.00
2017,05,31,04,56,0.00
2017,05,31,04,57,0.00
2017,05,31,04,58,0.00
2017,05,31,04,59,0.00
2017,05,31,05,00,0.00
2017,05,31,05,01,0.00
2017,05,31,05,02,0.00
2017,05,31,05,03,0.00
2017,05,31,05,04,0.00
2017,05,31,05,05,0.00
2017,05,31,05,06,0.00
2017,05,31,05,07,0.00
2017,05,31,05,08,0.00
2017,05,31,05,09,0.00
2017,05,31,05,10,0.00
2017,05,31,05,11,0.00
2017,05,31,05,12,0.00
2017,05,31,05,13,0.00
2017,05,31,05,14,0.00
2017,05,31,05,15,0.00
2017,05,31,05,16,0.00
2017,05,31,05,17,0.00
2017,05,31,05,18,0.00
2017,05,31,05,19,0.00
2017,05,31,05,20,0.00
2017,05,31,05,21,0.00
2017,05,31,05,22,0.00
2017,05,31,05,23,0.00
2017,05,31,05,24,0.00
2017,05,31,05,25,4.80
2017,05,31,05,26,5.00
2017,05,31,05,27,5.00
2017,05,31,05,28,6.10
2017,05,31,05,29,7.00
2017,05,31,05,30,7.00
2017,05,31,05,31,7.00
2017,05,31,05,32,7.50
2017,05,31,05,33,9.00
2017,05,31,05,34,9.00
2017,05,31,05,35,9.00
2017,05,31,05,36,9.00
2017,05,31,05,37,11.00
2017,05,31,05,38,11.00
2017,05,31,05,39,11.00
2017,05,31,05,40,11.00
2017,05,31,05,41,11.00
2017,05,31,05,42,11.00
2017,05,31,05,43,11.00
2017,05,31,05,44,11.30
2017,05,31,05,45,12.00
2017,05,31,05,46,12.00
2017,05,31,05,47,12.00
2017,05,31,05,48,13.80
2017,05,31,05,49,14.00
2017,05,31,05,50,14.70
2017,05,31,05,51,16.90
2017,05,31,05,52,18.60
2017,05,31,05,53,19.00
2017,05,31,05,54,19.00
2017,05,31,05,55,19.00
2017,05,31,05,56,19.00
2017,05,31,05,57,19.00
2017,05,31,05,58,20.20
2017,05,31,05,59,22.60
2017,05,31,06,00,23.20
2017,05,31,06,01,25.00
2017,05,31,06,02,25.40
2017,05,31,06,03,27.10
2017,05,31,06,04,29.30
2017,05,31,06,05,30.00
2017,05,31,06,06,30.00
2017,05,31,06,07,30.00
2017,05,31,06,08,30.00
2017,05,31,06,09,31.10
2017,05,31,06,10,32.70
2017,05,31,06,11,33.00
2017,05,31,06,12,33.30
2017,05,31,06,13,35.50
2017,05,31,06,14,37.80
2017,05,31,06,15,39.00
2017,05,31,06,16,41.10
2017,05,31,06,17,42.00
2017,05,31,06,18,43.90
2017,05,31,06,19,44.00
2017,05,31,06,20,44.90
2017,05,31,06,21,46.00
2017,05,31,06,22,46.70
2017,05,31,06,23,47.00
2017,05,31,06,24,47.00
2017,05,31,06,25,47.60
2017,05,31,06,26,49.90
2017,05,31,06,27,52.20
2017,05,31,06,28,53.80
2017,05,31,06,29,55.80
2017,05,31,06,30,55.60
2017,05,31,06,31,54.00
2017,05,31,06,32,54.90
2017,05,31,06,33,56.00
2017,05,31,06,34,57.60
2017,05,31,06,35,58.10
2017,05,31,06,36,60.40
2017,05,31,06,37,62.40
2017,05,31,06,38,63.00
2017,05,31,06,39,62.40
2017,05,31,06,40,59.00
2017,05,31,06,41,56.20
2017,05,31,06,42,56.00
2017,05,31,06,43,55.30
2017,05,31,06,44,54.00
2017,05,31,06,45,55.30
2017,05,31,06,46,60.80
2017,05,31,06,47,58.20
2017,05,31,06,48,59.80
2017,05,31,06,49,67.00
2017,05,31,06,50,71.10
2017,05,31,06,51,72.00
2017,05,31,06,52,70.30
2017,05,31,06,53,70.20
2017,05,31,06,54,72.50
2017,05,31,06,55,74.00
2017,05,31,06,56,72.90
2017,05,31,06,57,73.40
2017,05,31,06,58,74.00
2017,05,31,06,59,74.70
2017,05,31,07,00,81.80
2017,05,31,07,01,84.00
2017,05,31,07,02,86.40
2017,05,31,07,03,90.20
2017,05,31,07,04,91.10
2017,05,31,07,05,94.10
2017,05,31,07,06,99.10
2017,05,31,07,07,98.40
2017,05,31,07,08,102.40
2017,05,31,07,09,104.80
2017,05,31,07,10,105.00
2017,05,31,07,11,105.00
2017,05,31,07,12,105.00
2017,05,31,07,13,105.00
2017,05,31,07,14,106.20
2017,05,31,07,15,104.80
2017,05,31,07,16,98.10
2017,05,31,07,17,91.20
2017,05,31,07,18,84.00
2017,05,31,07,19,81.80
2017,05,31,07,20,81.60
2017,05,31,07,21,88.60
2017,05,31,07,22,83.60
2017,05,31,07,23,78.50
2017,05,31,07,24,86.10
2017,05,31,07,25,84.50
2017,05,31,07,26,77.10
2017,05,31,07,27,87.10
2017,05,31,07,28,92.50
2017,05,31,07,29,89.20
2017,05,31,07,30,86.80
2017,05,31,07,31,94.70
2017,05,31,07,32,99.30
2017,05,31,07,33,98.40
2017,05,31,07,34,98.60
2017,05,31,07,35,103.50
2017,05,31,07,36,109.50
2017,05,31,07,37,113.60
2017,05,31,07,38,113.30
2017,05,31,07,39,113.00
2017,05,31,07,40,110.40
2017,05,31,07,41,108.20
2017,05,31,07,42,113.10
2017,05,31,07,43,118.20
2017,05,31,07,44,123.50
2017,05,31,07,45,126.80
2017,05,31,07,46,120.40
2017,05,31,07,47,115.80
2017,05,31,07,48,111.00
2017,05,31,07,49,109.80
2017,05,31,07,50,107.60
2017,05,31,07,51,107.70
2017,05,31,07,52,122.40
2017,05,31,07,53,132.90
2017,05,31,07,54,139.10
2017,05,31,07,55,150.60
2017,05,31,07,56,149.80
2017,05,31,07,57,139.80
2017,05,31,07,58,146.00
2017,05,31,07,59,145.40
2017,05,31,08,00,145.80
2017,05,31,08,01,148.60
2017,05,31,08,02,132.20
2017,05,31,08,03,124.40
2017,05,31,08,04,112.40
2017,05,31,08,05,128.40
2017,05,31,08,06,144.00
2017,05,31,08,07,139.40
2017,05,31,08,08,131.40
2017,05,31,08,09,142.80
2017,05,31,08,10,158.20
2017,05,31,08,11,165.70
2017,05,31,08,12,171.50
2017,05,31,08,13,183.80
2017,05,31,08,14,185.40
2017,05,31,08,15,173.50
2017,05,31,08,16,164.60
2017,05,31,08,17,156.70
2017,05,31,08,18,156.70
2017,05,31,08,19,161.50
2017,05,31,08,20,164.70
2017,05,31,08,21,158.90
2017,05,31,08,22,151.20
2017,05,31,08,23,146.00
2017,05,31,08,24,149.90
2017,05,31,08,25,155.20
2017,05,31,08,26,155.10
2017,05,31,08,27,149.60
2017,05,31,08,28,141.10
2017,05,31,08,29,143.50
2017,05,31,08,30,140.60
2017,05,31,08,31,143.20
2017,05,31,08,32,156.70
2017,05,31,08,33,149.90
2017,05,31,08,34,130.80
2017,05,31,08,35,144.20
2017,05,31,08,36,162.60
2017,05,31,08,37,166.00
2017,05,31,08,38,167.00
2017,05,31,08,39,187.00
2017,05,31,08,40,205.70
2017,05,31,08,41,226.30
2017,05,31,08,42,220.00
2017,05,31,08,43,206.80
2017,05,31,08,44,214.70
2017,05,31,08,45,235.40
2017,05,31,08,46,233.80
2017,05,31,08,47,246.30
2017,05,31,08,48,261.40
2017,05,31,08,49,270.40
2017,05,31,08,50,260.00
2017,05,31,08,51,234.20
2017,05,31,08,52,227.50
2017,05,31,08,53,219.00
2017,05,31,08,54,207.10
2017,05,31,08,55,198.10
2017,05,31,08,56,195.90
2017,05,31,08,57,207.00
2017,05,31,08,58,215.10
2017,05,31,08,59,219.20
2017,05,31,09,00,219.70
2017,05,31,09,01,214.60
2017,05,31,09,02,200.40
2017,05,31,09,03,197.50
2017,05,31,09,04,199.40
2017,05,31,09,05,199.40
2017,05,31,09,06,191.30
2017,05,31,09,07,201.60
2017,05,31,09,08,229.00
2017,05,31,09,09,229.30
2017,05,31,09,10,230.00
2017,05,31,09,11,229.40
2017,05,31,09,12,239.50
2017,05,31,09,13,252.20
2017,05,31,09,14,257.80
2017,05,31,09,15,261.40
2017,05,31,09,16,254.00
2017,05,31,09,17,236.00
2017,05,31,09,18,223.00
2017,05,31,09,19,243.40
2017,05,31,09,20,246.00
2017,05,31,09,21,256.40
2017,05,31,09,22,240.40
2017,05,31,09,23,227.40
2017,05,31,09,24,229.00
2017,05,31,09,25,232.10
2017,05,31,09,26,217.60
2017,05,31,09,27,216.00
2017,05,31,09,28,226.50
2017,05,31,09,29,241.20
2017,05,31,09,30,240.20
2017,05,31,09,31,242.20
2017,05,31,09,32,241.50
2017,05,31,09,33,288.20
2017,05,31,09,34,271.50
2017,05,31,09,35,239.00
2017,05,31,09,36,261.10
2017,05,31,09,37,266.10
2017,05,31,09,38,299.50
2017,05,31,09,39,317.80
2017,05,31,09,40,364.70
2017,05,31,09,41,359.30
2017,05,31,09,42,352.20
2017,05,31,09,43,343.70
2017,05,31,09,44,300.50
2017,05,31,09,45,269.50
2017,05,31,09,46,264.80
2017,05,31,09,47,291.80
2017,05,31,09,48,278.20
2017,05,31,09,49,269.40
2017,05,31,09,50,283.10
2017,05,31,09,51,297.40
2017,05,31,09,52,302.90
2017,05,31,09,53,293.60
2017,05,31,09,54,281.50
2017,05,31,09,55,266.70
2017,05,31,09,56,295.40
2017,05,31,09,57,326.30
2017,05,31,09,58,348.40
2017,05,31,09,59,360.40
2017,05,31,10,00,358.80
2017,05,31,10,01,339.20
2017,05,31,10,02,288.10
2017,05,31,10,03,266.50
2017,05,31,10,04,301.40
2017,05,31,10,05,315.80
2017,05,31,10,06,308.70
2017,05,31,10,07,294.90
2017,05,31,10,08,286.20
2017,05,31,10,09,283.00
2017,05,31,10,10,284.30
2017,05,31,10,11,287.50
2017,05,31,10,12,286.90
2017,05,31,10,13,283.70
2017,05,31,10,14,276.50
2017,05,31,10,15,270.50
2017,05,31,10,16,270.40
2017,05,31,10,17,273.50
2017,05,31,10,18,279.40
2017,05,31,10,19,284.30
2017,05,31,10,20,290.40
2017,05,31,10,21,294.00
2017,05,31,10,22,296.10
2017,05,31,10,23,300.20
2017,05,31,10,24,298.80
2017,05,31,10,25,296.10
2017,05,31,10,26,296.10
2017,05,31,10,27,305.60
2017,05,31,10,28,320.00
2017,05,31,10,29,332.80
2017,05,31,10,30,338.20
2017,05,31,10,31,339.60
2017,05,31,10,32,340.10
2017,05,31,10,33,335.00
2017,05,31,10,34,325.20
2017,05,31,10,35,318.50
2017,05,31,10,36,316.60
2017,05,31,10,37,322.10
2017,05,31,10,38,329.50
2017,05,31,10,39,334.50
2017,05,31,10,40,336.00
2017,05,31,10,41,338.10
2017,05,31,10,42,346.50
2017,05,31,10,43,354.80
2017,05,31,10,44,368.00
2017,05,31,10,45,381.90
2017,05,31,10,46,381.80
2017,05,31,10,47,376.20
2017,05,31,10,48,372.40
2017,05,31,10,49,365.30
2017,05,31,10,50,362.90
2017,05,31,10,51,362.00
2017,05,31,10,52,354.00
2017,05,31,10,53,340.60
2017,05,31,10,54,330.20
2017,05,31,10,55,318.60
2017,05,31,10,56,299.00
2017,05,31,10,57,277.60
2017,05,31,10,58,259.20
2017,05,31,10,59,237.90
2017,05,31,11,00,239.00
2017,05,31,11,01,249.20
2017,05,31,11,02,253.30
2017,05,31,11,03,255.00
2017,05,31,11,04,239.70
2017,05,31,11,05,244.60
2017,05,31,11,06,252.10
2017,05,31,11,07,247.10
2017,05,31,11,08,239.40
2017,05,31,11,09,226.70
2017,05,31,11,10,227.20
2017,05,31,11,11,248.30
2017,05,31,11,12,273.10
2017,05,31,11,13,272.10
2017,05,31,11,14,265.00
2017,05,31,11,15,281.50
2017,05,31,11,16,291.90
2017,05,31,11,17,303.00
2017,05,31,11,18,314.80
2017,05,31,11,19,329.50
2017,05,31,11,20,342.30
2017,05,31,11,21,351.20
2017,05,31,11,22,354.50
2017,05,31,11,23,347.40
2017,05,31,11,24,345.00
2017,05,31,11,25,348.50
2017,05,31,11,26,361.80
2017,05,31,11,27,367.00
2017,05,31,11,28,408.30
2017,05,31,11,29,441.20
2017,05,31,11,30,467.60
2017,05,31,11,31,487.00
2017,05,31,11,32,505.10
2017,05,31,11,33,517.10
2017,05,31,11,34,499.20
2017,05,31,11,35,422.00
2017,05,31,11,36,439.00
2017,05,31,11,37,489.10
2017,05,31,11,38,508.10
2017,05,31,11,39,523.40
2017,05,31,11,40,556.60
2017,05,31,11,41,475.30
2017,05,31,11,42,511.20
2017,05,31,11,43,564.00
2017,05,31,11,44,564.00
2017,05,31,11,45,578.40
2017,05,31,11,46,586.00
2017,05,31,11,47,569.40
2017,05,31,11,48,609.60
2017,05,31,11,49,687.10
2017,05,31,11,50,713.70
2017,05,31,11,51,710.00
2017,05,31,11,52,809.00
2017,05,31,11,53,848.00
2017,05,31,11,54,939.00
2017,05,31,11,55,833.40
2017,05,31,11,56,706.00
2017,05,31,11,57,770.20
2017,05,31,11,58,728.20
2017,05,31,11,59,675.00
2017,05,31,12,00,620.80
2017,05,31,12,01,586.20
2017,05,31,12,02,558.00
2017,05,31,12,03,518.50
2017,05,31,12,04,507.00
2017,05,31,12,05,508.60
2017,05,31,12,06,523.70
2017,05,31,12,07,526.00
2017,05,31,12,08,553.20
2017,05,31,12,09,533.40
2017,05,31,12,10,547.00
2017,05,31,12,11,555.00
2017,05,31,12,12,625.50
2017,05,31,12,13,715.00
2017,05,31,12,14,700.20
2017,05,31,12,15,685.70
2017,05,31,12,16,683.20
2017,05,31,12,17,689.40
2017,05,31,12,18,672.50
2017,05,31,12,19,604.80
2017,05,31,12,20,618.80
2017,05,31,12,21,643.40
2017,05,31,12,22,693.60
2017,05,31,12,23,675.80
2017,05,31,12,24,654.00
2017,05,31,12,25,669.80
2017,05,31,12,26,685.00
2017,05,31,12,27,684.00
2017,05,31,12,28,684.00
2017,05,31,12,29,684.00
2017,05,31,12,30,736.80
2017,05,31,12,31,780.00
2017,05,31,12,32,854.30
2017,05,31,12,33,898.20
2017,05,31,12,34,864.40
2017,05,31,12,35,863.00
2017,05,31,12,36,863.00
2017,05,31,12,37,576.70
2017,05,31,12,38,441.20
2017,05,31,12,39,408.90
2017,05,31,12,40,431.10
2017,05,31,12,41,472.80
2017,05,31,12,42,510.90
2017,05,31,12,43,584.20
2017,05,31,12,44,662.30
2017,05,31,12,45,696.30
2017,05,31,12,46,626.00
2017,05,31,12,47,734.00
2017,05,31,12,48,842.00
2017,05,31,12,49,617.00
2017,05,31,12,50,516.70
2017,05,31,12,51,499.50
2017,05,31,12,52,468.70
2017,05,31,12,53,453.30
2017,05,31,12,54,450.00
2017,05,31,12,55,458.80
2017,05,31,12,56,481.60
2017,05,31,12,57,512.30
2017,05,31,12,58,546.00
2017,05,31,12,59,588.00
2017,05,31,13,00,610.00
2017,05,31,13,01,743.10
2017,05,31,13,02,698.10
2017,05,31,13,03,636.70
2017,05,31,13,04,645.40
2017,05,31,13,05,662.30
2017,05,31,13,06,623.90
2017,05,31,13,07,605.30
2017,05,31,13,08,567.70
2017,05,31,13,09,572.30
2017,05,31,13,10,567.50
2017,05,31,13,11,578.00
2017,05,31,13,12,578.00
2017,05,31,13,13,578.00
2017,05,31,13,14,542.50
2017,05,31,13,15,566.30
2017,05,31,13,16,605.70
2017,05,31,13,17,597.00
2017,05,31,13,18,581.50
2017,05,31,13,19,564.30
2017,05,31,13,20,577.80
2017,05,31,13,21,612.30
2017,05,31,13,22,638.30
2017,05,31,13,23,652.00
2017,05,31,13,24,652.00
2017,05,31,13,25,649.30
2017,05,31,13,26,623.60
2017,05,31,13,27,516.00
2017,05,31,13,28,481.40
2017,05,31,13,29,461.00
2017,05,31,13,30,505.80
2017,05,31,13,31,543.00
2017,05,31,13,32,446.20
2017,05,31,13,33,423.00
2017,05,31,13,34,396.50
2017,05,31,13,35,372.00
2017,05,31,13,36,355.60
2017,05,31,13,37,344.70
2017,05,31,13,38,336.40
2017,05,31,13,39,330.00
2017,05,31,13,40,324.90
2017,05,31,13,41,324.30
2017,05,31,13,42,330.60
2017,05,31,13,43,343.60
2017,05,31,13,44,357.80
2017,05,31,13,45,366.40
2017,05,31,13,46,362.60
2017,05,31,13,47,347.80
2017,05,31,13,48,322.40
2017,05,31,13,49,298.60
2017,05,31,13,50,282.30
2017,05,31,13,51,273.90
2017,05,31,13,52,268.80
2017,05,31,13,53,261.80
2017,05,31,13,54,253.40
2017,05,31,13,55,244.60
2017,05,31,13,56,235.50
2017,05,31,13,57,231.10
2017,05,31,13,58,229.40
2017,05,31,13,59,229.00
2017,05,31,14,00,228.90
2017,05,31,14,01,226.20
2017,05,31,14,02,220.60
2017,05,31,14,03,211.70
2017,05,31,14,04,201.00
2017,05,31,14,05,188.80
2017,05,31,14,06,178.10
2017,05,31,14,07,171.40
2017,05,31,14,08,169.00
2017,05,31,14,09,170.00
2017,05,31,14,10,171.60
2017,05,31,14,11,172.00
2017,05,31,14,12,171.90
2017,05,31,14,13,171.00
2017,05,31,14,14,171.40
2017,05,31,14,15,175.00
2017,05,31,14,16,183.50
2017,05,31,14,17,193.20
2017,05,31,14,18,204.20
2017,05,31,14,19,212.80
2017,05,31,14,20,218.80
2017,05,31,14,21,220.00
2017,05,31,14,22,220.00
2017,05,31,14,23,220.80
2017,05,31,14,24,221.20
2017,05,31,14,25,224.50
2017,05,31,14,26,231.80
2017,05,31,14,27,239.90
2017,05,31,14,28,252.80
2017,05,31,14,29,269.80
2017,05,31,14,30,297.80
2017,05,31,14,31,334.10
2017,05,31,14,32,392.40
2017,05,31,14,33,440.80
2017,05,31,14,34,465.50
2017,05,31,14,35,498.10
2017,05,31,14,36,596.00
2017,05,31,14,37,663.60
2017,05,31,14,38,842.00
2017,05,31,14,39,881.00
2017,05,31,14,40,639.50
2017,05,31,14,41,543.20
2017,05,31,14,42,553.60
2017,05,31,14,43,563.20
2017,05,31,14,44,526.50
2017,05,31,14,45,491.80
2017,05,31,14,46,465.60
2017,05,31,14,47,439.80
2017,05,31,14,48,429.20
2017,05,31,14,49,452.00
2017,05,31,14,50,494.00
2017,05,31,14,51,503.50
2017,05,31,14,52,483.80
2017,05,31,14,53,447.70
2017,05,31,14,54,426.70
2017,05,31,14,55,413.10
2017,05,31,14,56,400.50
2017,05,31,14,57,402.90
2017,05,31,14,58,444.40
2017,05,31,14,59,546.80
2017,05,31,15,00,598.50
2017,05,31,15,01,738.00
2017,05,31,15,02,666.50
2017,05,31,15,03,608.00
2017,05,31,15,04,758.40
2017,05,31,15,05,809.80
2017,05,31,15,06,840.00
2017,05,31,15,07,733.30
2017,05,31,15,08,585.60
2017,05,31,15,09,623.40
2017,05,31,15,10,660.30
2017,05,31,15,11,627.60
2017,05,31,15,12,405.80
2017,05,31,15,13,348.30
2017,05,31,15,14,327.40
2017,05,31,15,15,320.80
2017,05,31,15,16,321.70
2017,05,31,15,17,325.80
2017,05,31,15,18,329.30
2017,05,31,15,19,329.50
2017,05,31,15,20,327.80
2017,05,31,15,21,323.10
2017,05,31,15,22,316.50
2017,05,31,15,23,313.00
2017,05,31,15,24,313.90
2017,05,31,15,25,321.00
2017,05,31,15,26,336.60
2017,05,31,15,27,358.80
2017,05,31,15,28,392.40
2017,05,31,15,29,426.40
2017,05,31,15,30,423.30
2017,05,31,15,31,417.50
2017,05,31,15,32,411.10
2017,05,31,15,33,415.60
2017,05,31,15,34,433.50
2017,05,31,15,35,460.30
2017,05,31,15,36,479.30
2017,05,31,15,37,480.50
2017,05,31,15,38,484.30
2017,05,31,15,39,470.70
2017,05,31,15,40,460.40
2017,05,31,15,41,436.50
2017,05,31,15,42,409.40
2017,05,31,15,43,390.40
2017,05,31,15,44,380.10
2017,05,31,15,45,376.30
2017,05,31,15,46,373.40
2017,05,31,15,47,365.00
2017,05,31,15,48,356.20
2017,05,31,15,49,350.90
2017,05,31,15,50,346.30
2017,05,31,15,51,337.40
2017,05,31,15,52,323.20
2017,05,31,15,53,310.20
2017,05,31,15,54,296.60
2017,05,31,15,55,281.60
2017,05,31,15,56,265.70
2017,05,31,15,57,250.10
2017,05,31,15,58,231.90
2017,05,31,15,59,216.70
2017,05,31,16,00,204.30
2017,05,31,16,01,194.80
2017,05,31,16,02,187.60
2017,05,31,16,03,183.40
2017,05,31,16,04,181.00
2017,05,31,16,05,181.70
2017,05,31,16,06,185.40
2017,05,31,16,07,192.20
2017,05,31,16,08,205.50
2017,05,31,16,09,228.40
2017,05,31,16,10,264.00
2017,05,31,16,11,308.10
2017,05,31,16,12,365.50
2017,05,31,16,13,402.50
2017,05,31,16,14,422.80
2017,05,31,16,15,434.40
2017,05,31,16,16,444.50
2017,05,31,16,17,442.30
2017,05,31,16,18,439.50
2017,05,31,16,19,436.70
2017,05,31,16,20,425.90
2017,05,31,16,21,404.40
2017,05,31,16,22,375.90
2017,05,31,16,23,348.60
2017,05,31,16,24,328.90
2017,05,31,16,25,317.40
2017,05,31,16,26,305.60
2017,05,31,16,27,288.50
2017,05,31,16,28,272.50
2017,05,31,16,29,257.60
2017,05,31,16,30,248.20
2017,05,31,16,31,244.50
2017,05,31,16,32,247.40
2017,05,31,16,33,259.40
2017,05,31,16,34,302.60
2017,05,31,16,35,388.10
2017,05,31,16,36,464.60
2017,05,31,16,37,433.70
2017,05,31,16,38,394.10
2017,05,31,16,39,376.10
2017,05,31,16,40,350.20
2017,05,31,16,41,340.80
2017,05,31,16,42,323.80
2017,05,31,16,43,291.80
2017,05,31,16,44,264.30
2017,05,31,16,45,234.80
2017,05,31,16,46,212.40
2017,05,31,16,47,196.30
2017,05,31,16,48,187.00
2017,05,31,16,49,185.00
2017,05,31,16,50,184.60
2017,05,31,16,51,180.40
2017,05,31,16,52,176.50
2017,05,31,16,53,172.50
2017,05,31,16,54,165.80
2017,05,31,16,55,156.60
2017,05,31,16,56,141.90
2017,05,31,16,57,125.50
2017,05,31,16,58,114.80
2017,05,31,16,59,107.00
2017,05,31,17,00,105.00
2017,05,31,17,01,109.70
2017,05,31,17,02,124.50
2017,05,31,17,03,149.80
2017,05,31,17,04,175.40
2017,05,31,17,05,195.70
2017,05,31,17,06,209.50
2017,05,31,17,07,215.40
2017,05,31,17,08,215.60